[[{"header":{"parameterUnit":"m.s-1","parameterCategory":1,"la1":30.2991,"la2":30.254,"lo1":-89.0895,"lo2":-89.0444,"dy":0.0017,"dx":0.0017,"nx":28,"ny":28,"refTime":"2024-07-21T21:00:00:Z","depth":0,"parameterNumber":2,"parameterNumberName":"U-component_of_WINDS"},"data":[0,0,0,0,0,0,0,0,0,0,0,0,0,0,0,0,0,0,0,0,0,0,0,0,0,0,0,0,0,0,0,0,0,0,0,0,0,0,0,0,0,0,0,0,0,0,0,0,0,0,0,0,0,0,0,0,0,0,0.1562,0.1563,0,0.161,0.1611,0.1611,0.1622,0.1621,0.1621,0.1621,0.1665,0.1667,0.1668,0,0,0,0,0,0,0,0,0,0,0,0,0,0.1476,0.1477,0.1562,0.1563,0.1564,0.161,0.1611,0.1611,0.1622,0.1621,0.1621,0.162,0.1665,0.1667,0.1669,0,0,0,0,0,0,0,0,0,0,0,0,0,0.1517,0.1478,0.1562,0.1574,0.1576,0.161,0.1611,0.1611,0.1622,0.1621,0.1621,0.162,0.1664,0.1667,0.1669,0.1693,0,0,0.1676,0.1677,0,0,0,0,0,0,0,0,0.1515,0.152,0.1572,0.1574,0.1576,0.1609,0.1596,0.1638,0.1622,0.1604,0.1621,0.162,0.1647,0.1651,0.166,0.1695,0.1697,0.1676,0.1677,0.1678,0.1679,0,0,0,0,0,0,0,0.1512,0.1518,0.1581,0.1573,0.1575,0.1576,0.1581,0.1604,0.1628,0.1606,0.1607,0.1612,0.1648,0.1658,0.1662,0.1697,0.1676,0.1678,0.1679,0.168,0.1752,0.1753,0,0,0,0,0,0,0.1508,0.1516,0.158,0.1583,0.1543,0.1578,0.1584,0.1599,0.1627,0.1631,0.1613,0.1613,0.1655,0.1659,0.1663,0.1693,0.1678,0.168,0.1682,0.1752,0.1752,0.1753,0,0,0,0,0,0,0.1506,0.1513,0.1578,0.155,0.1558,0.158,0.1597,0.16,0.1611,0.1633,0.1637,0.162,0.1654,0.166,0.1685,0.1695,0.1681,0.1683,0.1751,0.1752,0.1753,0.1753,0,0,0,0,0,0,0.1503,0.1512,0.1523,0.155,0.1559,0.16,0.1597,0.1601,0.1615,0.1616,0.164,0.1644,0.1655,0.1682,0.1688,0.1698,0.1685,0.175,0.1751,0.1752,0.1752,0.1753,0.1755,0,0,0,0,0,0.15,0.152,0.1524,0.1531,0.1573,0.1601,0.1606,0.1619,0.1616,0.1626,0.164,0.1643,0.1692,0.1684,0.1691,0.1702,0.175,0.1751,0.1752,0.1751,0.1753,0.1755,0,0,0,0,0,0,0.1493,0.1524,0.1528,0.1558,0.1577,0.1603,0.1616,0.1621,0.164,0.164,0.1654,0.1659,0.1683,0.1695,0.1685,0.1726,0.1721,0.1723,0.1718,0.172,0.1721,0.1718,0.1687,0,0,0,0,0,0.1495,0.1516,0.1542,0.1566,0.1575,0.1594,0.1606,0.1615,0.1634,0.1642,0.1658,0.1676,0.1695,0.1708,0.1727,0.1753,0.1758,0.1763,0.1765,0.1766,0.1768,0.1782,0.1785,0.1757,0.1757,0.1757,0,0,0.1499,0.1519,0.1531,0.1565,0.158,0.1601,0.16,0.1622,0.1637,0.1645,0.1671,0.1682,0.1703,0.1729,0.1741,0.1739,0.1777,0.1767,0.1768,0.177,0.1784,0.1786,0.1789,0.1758,0.1758,0.1758,0,0,0.1518,0.1535,0.1557,0.1572,0.1597,0.1609,0.1614,0.1639,0.1648,0.1673,0.1679,0.1696,0.173,0.1744,0.1756,0.1778,0.1782,0.1784,0.1791,0.1805,0.1807,0.1809,0.1817,0.182,0.1786,0.1786,0.1786,0,0.152,0.1553,0.1567,0.1589,0.1603,0.1611,0.1633,0.1647,0.1675,0.1684,0.1681,0.1723,0.1738,0.1767,0.1772,0.1781,0.1787,0.1782,0.1806,0.1808,0.181,0.1818,0.1821,0.1786,0.1786,0.1786,0.1786,0,0.1553,0.1576,0.159,0.1619,0.1634,0.1656,0.1672,0.1685,0.1692,0.1703,0.1729,0.1746,0.1769,0.1776,0.1782,0.1806,0.1804,0.1803,0.1799,0.1813,0.182,0.1824,0.1786,0.1786,0.1786,0.1786,0,0,0.157,0.1606,0.1611,0.1624,0.1651,0.1668,0.1688,0.1712,0.1723,0.1742,0.1759,0.1787,0.1786,0.18,0.1807,0.1819,0.1835,0.1817,0.1818,0.182,0.1862,0.1863,0.1866,0.1837,0.1838,0.1839,0.186,0,0.1592,0.1632,0.1645,0.1677,0.1697,0.1705,0.1723,0.1741,0.1752,0.1769,0.1781,0.18,0.1798,0.1806,0.1818,0.1831,0.1844,0.1829,0.1853,0.1854,0.1849,0.187,0.1871,0.1891,0.1864,0.1864,0.1864,0,0.1624,0.1645,0.1679,0.1703,0.1712,0.1728,0.1751,0.1768,0.1787,0.1794,0.1808,0.1815,0.1835,0.1828,0.1856,0.1846,0.1856,0.1863,0.1864,0.1868,0.1861,0.1875,0.1898,0.1901,0.1869,0.1869,0.1868,0,0.1633,0.1669,0.1695,0.1705,0.1734,0.1745,0.1757,0.1776,0.1789,0.1807,0.1815,0.1835,0.1846,0.1861,0.1872,0.1866,0.1899,0.1893,0.1905,0.1904,0.1912,0.1912,0.1938,0.1917,0.1917,0.1917,0.1917,0,0.1657,0.1678,0.1699,0.1715,0.1738,0.1752,0.1774,0.1786,0.1802,0.1819,0.1826,0.1842,0.1855,0.1872,0.188,0.1902,0.1906,0.1912,0.1914,0.1912,0.1911,0.192,0.1919,0.1918,0.1918,0.1917,0.1917,0,0.1671,0.1687,0.1715,0.174,0.1746,0.1762,0.1782,0.1797,0.1808,0.1829,0.1835,0.1852,0.1872,0.1884,0.1909,0.1915,0.1939,0.194,0.1933,0.1934,0.1945,0.1944,0.1978,0.1983,0.1958,0.1958,0.1959,0,0.1686,0.1703,0.1729,0.1742,0.1754,0.1774,0.1788,0.1801,0.1814,0.1837,0.1849,0.1869,0.1887,0.1918,0.1932,0.1951,0.1953,0.1963,0.1956,0.1953,0.1953,0.1953,0.1954,0.1965,0.1965,0.1965,0.1965,0,0.1711,0.1717,0.1737,0.176,0.1776,0.1794,0.1812,0.1821,0.1837,0.1852,0.1873,0.1887,0.1912,0.1933,0.1953,0.1963,0.1967,0.1968,0.1971,0.197,0.1965,0.1968,0.1937,0.1967,0.1967,0.1967,0.1967,0.1967,0.1726,0.1741,0.1762,0.1784,0.1799,0.1815,0.183,0.1843,0.1862,0.1885,0.1891,0.1913,0.1931,0.1958,0.1969,0.1985,0.1984,0.1989,0.199,0.1992,0.1992,0.1962,0.1989,0.1989,0.1989,0.1989,0.1989,0,0.1751,0.1765,0.1785,0.1811,0.1827,0.183,0.1849,0.1863,0.1883,0.19,0.1917,0.1941,0.196,0.1975,0.1995,0.2005,0.2007,0.201,0.2009,0.2012,0.1993,0.1988,0.2008,0.2008,0.2008,0.2008,0.2008,0.2008,0.1767,0.1792,0.1801,0.1834,0.1847,0.187,0.1881,0.1895,0.1909,0.1936,0.1953,0.1962,0.1978,0.1998,0.2016,0.202,0.2027,0.2029,0.2033,0.2015,0.2013,0.2011,0.2007,0.203,0.203,0.2051,0.2051,0.2051]},{"header":{"parameterUnit":"m.s-1","parameterCategory":1,"la1":30.2991,"la2":30.254,"lo1":-89.0895,"lo2":-89.0444,"dy":0.0017,"dx":0.0017,"nx":28,"ny":28,"refTime":"2024-07-21T21:00:00:Z","depth":0,"parameterNumber":3,"parameterNumberName":"V-component_of_WINDS"},"data":[0,0,0,0,0,0,0,0,0,0,0,0,0,0,0,0,0,0,0,0,0,0,0,0,0,0,0,0,0,0,0,0,0,0,0,0,0,0,0,0,0,0,0,0,0,0,0,0,0,0,0,0,0,0,0,0,0,0,4.535,4.5348,0,4.5166,4.5163,4.5161,4.5072,4.5072,4.5072,4.5072,4.4876,4.487,4.4865,0,0,0,0,0,0,0,0,0,0,0,0,0,4.5617,4.5613,4.535,4.5348,4.5345,4.5166,4.5163,4.5161,4.5072,4.5072,4.5072,4.5072,4.4877,4.4871,4.4865,0,0,0,0,0,0,0,0,0,0,0,0,0,4.5474,4.5611,4.535,4.528,4.5271,4.5166,4.5163,4.516,4.5072,4.5072,4.5072,4.5073,4.4879,4.4872,4.4864,4.4813,0,0,4.484,4.4836,0,0,0,0,0,0,0,0,4.5482,4.5464,4.5292,4.5284,4.5275,4.5142,4.5185,4.5043,4.5072,4.5148,4.5072,4.5073,4.4964,4.4949,4.4914,4.4803,4.4795,4.4839,4.4834,4.4831,4.4828,0,0,0,0,0,0,0,4.5492,4.5471,4.5277,4.529,4.5279,4.5255,4.5234,4.5158,4.5057,4.5141,4.5134,4.5114,4.4959,4.4922,4.4908,4.4792,4.4839,4.4832,4.4827,4.4824,4.4629,4.4629,0,0,0,0,0,0,4.5514,4.548,4.5282,4.5271,4.5381,4.525,4.5227,4.5185,4.5058,4.5039,4.5114,4.5111,4.4935,4.4918,4.4901,4.4832,4.4831,4.4823,4.4819,4.4629,4.4629,4.4629,0,0,0,0,0,0,4.5521,4.5498,4.529,4.5374,4.5345,4.5245,4.5198,4.5181,4.5144,4.5037,4.5018,4.5095,4.4935,4.4912,4.4836,4.4824,4.482,4.4812,4.463,4.4629,4.4629,4.4695,0,0,0,0,0,0,4.5529,4.5501,4.5482,4.5374,4.5341,4.523,4.5197,4.5177,4.5131,4.5125,4.5015,4.4996,4.4933,4.4848,4.4828,4.4813,4.4806,4.463,4.463,4.4629,4.4693,4.4696,4.4699,0,0,0,0,0,4.5539,4.5506,4.5481,4.5458,4.5316,4.523,4.5211,4.5141,4.5131,4.511,4.5041,4.5,4.4829,4.4841,4.4817,4.48,4.4631,4.463,4.4629,4.4692,4.4696,4.4699,0,0,0,0,0,0,4.5612,4.5491,4.5462,4.5394,4.5323,4.5215,4.5186,4.5147,4.5076,4.5072,4.4986,4.4962,4.4893,4.4838,4.4854,4.4743,4.4726,4.472,4.4782,4.4784,4.4788,4.4802,4.48,0,0,0,0,0,4.5621,4.5563,4.5459,4.5409,4.5375,4.5288,4.5247,4.52,4.5121,4.509,4.5016,4.494,4.4869,4.4824,4.4752,4.4685,4.4659,4.4661,4.4665,4.4668,4.4663,4.4623,4.4622,4.4626,4.4626,4.4626,0,0,4.5637,4.5564,4.5532,4.5422,4.5362,4.5301,4.5263,4.52,4.5154,4.508,4.5004,4.4947,4.4855,4.4783,4.4748,4.4736,4.4657,4.4667,4.467,4.4663,4.4622,4.4622,4.4621,4.4625,4.4625,4.4625,0,0,4.5637,4.5577,4.5528,4.5469,4.5379,4.5321,4.531,4.5207,4.5167,4.509,4.5033,4.4975,4.4855,4.4792,4.4745,4.4721,4.468,4.47,4.4716,4.4678,4.4677,4.4677,4.4667,4.4665,4.4697,4.4697,4.4697,0,4.5668,4.5578,4.5508,4.5449,4.5402,4.5335,4.5284,4.5229,4.5119,4.5086,4.5076,4.4924,4.4857,4.4769,4.4764,4.4728,4.471,4.4712,4.4684,4.4682,4.468,4.4671,4.4667,4.47,4.4699,4.4699,4.4699,0,4.562,4.5559,4.553,4.5429,4.5378,4.5324,4.5243,4.5199,4.5157,4.5099,4.502,4.4939,4.485,4.4825,4.4782,4.4731,4.4726,4.4701,4.4681,4.4685,4.4674,4.4669,4.4704,4.4703,4.4702,4.4701,0,0,4.566,4.5522,4.5513,4.5466,4.5362,4.5311,4.5253,4.5169,4.5133,4.5059,4.5007,4.4908,4.4884,4.483,4.4778,4.4745,4.473,4.4722,4.4719,4.4726,4.4668,4.4687,4.4684,4.4703,4.4702,4.4701,4.4675,0,4.5645,4.5541,4.5476,4.5397,4.5338,4.5273,4.5222,4.5152,4.5096,4.5036,4.4973,4.4904,4.4878,4.4845,4.4809,4.474,4.4717,4.4741,4.4651,4.4648,4.4675,4.4679,4.4699,4.4679,4.4671,4.467,4.4669,0,4.5613,4.5544,4.546,4.5363,4.5336,4.5292,4.5209,4.5153,4.5071,4.5033,4.4974,4.4922,4.4855,4.4843,4.4748,4.4766,4.4725,4.4686,4.4683,4.4671,4.4659,4.4666,4.467,4.4667,4.4662,4.4663,4.4663,0,4.565,4.5536,4.5471,4.5433,4.5318,4.5288,4.5238,4.5157,4.511,4.5037,4.5006,4.4925,4.488,4.4818,4.4745,4.4743,4.4658,4.4639,4.4622,4.4624,4.4606,4.4608,4.4604,4.4582,4.4582,4.4582,4.4582,0,4.5639,4.559,4.5486,4.5446,4.5389,4.5313,4.5257,4.5202,4.513,4.5076,4.5014,4.4964,4.4872,4.4809,4.4752,4.4682,4.4662,4.4628,4.4613,4.4633,4.4637,4.4604,4.4603,4.4581,4.4581,4.4582,4.4582,0,4.567,4.5599,4.5524,4.5422,4.5395,4.5357,4.5269,4.5226,4.5168,4.51,4.508,4.4987,4.4911,4.4833,4.4729,4.469,4.4622,4.4601,4.4651,4.4642,4.463,4.4632,4.4603,4.4595,4.458,4.458,4.458,0,4.5668,4.5629,4.5524,4.5485,4.5438,4.5375,4.5328,4.5252,4.5205,4.5109,4.5077,4.4997,4.4929,4.481,4.4732,4.4651,4.4628,4.4624,4.4616,4.4637,4.4627,4.463,4.4625,4.4627,4.4627,4.4628,4.4628,0,4.5671,4.5638,4.5575,4.5498,4.5445,4.538,4.5313,4.5284,4.5194,4.5144,4.5067,4.5015,4.491,4.483,4.4741,4.4686,4.4641,4.4632,4.4623,4.4643,4.4673,4.4656,4.4658,4.4632,4.4632,4.4631,4.4631,4.4631,4.5685,4.5647,4.5568,4.5498,4.5441,4.538,4.5335,4.5272,4.5208,4.5118,4.5076,4.4999,4.4916,4.4792,4.4739,4.4675,4.4662,4.4651,4.4647,4.4646,4.465,4.4684,4.4659,4.4658,4.4658,4.4658,4.4658,0,4.5684,4.563,4.5568,4.5477,4.5422,4.5388,4.5312,4.5268,4.5201,4.5129,4.5065,4.4975,4.4898,4.4815,4.4732,4.4697,4.4674,4.4677,4.4678,4.4666,4.4667,4.4682,4.4697,4.4697,4.4697,4.4697,4.4697,4.4697,4.5677,4.5612,4.557,4.5474,4.5419,4.5346,4.5305,4.5247,4.519,4.5094,4.5031,4.4978,4.49,4.4812,4.4738,4.4715,4.4687,4.4697,4.4668,4.4669,4.4666,4.4664,4.4677,4.4691,4.4691,4.4672,4.4672,4.4672]}]]